OBJECT PJ

Last updated on Fri Aug 17 2018 00:15:07 GMT+0000 (Coordinated Universal Time)

1 43597U 98067PJ 18228.07212455 -.00000481 00000-0 00000+0 0 9998 2 43597 51.6420 80.2604 0004432 60.8460 299.4604 15.54144419 52
UTC large
Height (km)
Speed (km/s)
/
Latitude / Longitude
Inclination (degrees)
Orbital Period (minutes)
Azimuth
Elevation
Range (km)
Doppler Factor

Next 0 passes for location: London (51.5072 / 0.1276)

Sorry there are no passes over London.